Weather History for KD07 - March, 2014

Change the Weather History Date:

Tuesday, March 4, 2014

  Actual Average Record
Temperature  
Mean Temperature 7 °F 28 °F  
Max Temperature 14 °F 38 °F 55 °F (2005)
Min Temperature -1 °F 19 °F -3 °F (2015)
Degree Days  
Heating Degree Days 58 37  
Month to date heating degree days 271 149  
Since 1 July heating degree days 6357 5837  
Cooling Degree Days 0 0  
Month to date cooling degree days 0 0  
Year to date cooling degree days 0 0  
Moisture  
Dew Point 5 °F    
Average Humidity 79    
Maximum Humidity 88    
Minimum Humidity 70    
Precipitation  
Precipitation 0.05 in 0.02 in 0.06 in (2012)
Month to date precipitation 0.17 0.06  
Year to date precipitation 1.07 0.68  
Sea Level Pressure  
Sea Level Pressure 30.17 in    
Wind  
Wind Speed 7 mph (East)    
Max Wind Speed 16 mph    
Max Gust Speed 18 mph    
T = Trace of Precipitation, MM = Missing Value Source: NWS Daily Summary

Daily Weather History Graph

Daily Weather History Graph

Search for Another Location

Airport or City:

Trip Planner

Search our weather history database for the weather conditions in past years. The results will help you decide how hot, cold, wet, or windy it might be!

Date:

Astronomy

Mar. 04, 2014 Rise Set
Actual Time 6:20 AM MST 5:39 PM MST
Civil Twilight 5:51 AM MST 6:09 PM MST
Nautical Twilight 5:17 AM MST 6:43 PM MST
Astronomical Twilight 4:43 AM MST 7:17 PM MST
Moon 7:57 AM MST (3/4) 10:01 PM MST (3/4)
Length of Visible Light 12h 17m
Length of Day
11h 19m
Waxing Crescent, 15% of the Moon is Illuminated
Mar 4
Waxing Crescent
Mar 8
First Quarter
Mar 16
Full
Mar 23
Last Quarter
Mar 30
New

Hourly Weather History & Observations

Time (MST) Temp. Windchill Dew Point Humidity Pressure Visibility Wind Dir Wind Speed Gust Speed Precip Events Conditions
12:56 AM 1.0 °F -6.7 °F -2.0 °F 87% 30.13 in - SE 3.5 mph - N/A   Unknown
1:56 AM 3.9 °F -6.9 °F -0.0 °F 84% 30.10 in - ENE 5.8 mph - N/A   Unknown
2:56 AM 3.9 °F -8.2 °F -0.0 °F 84% 30.10 in - NE 6.9 mph - N/A   Unknown
3:56 AM 5.0 °F -6.9 °F 1.0 °F 84% 30.08 in - ENE 6.9 mph - N/A   Unknown
4:56 AM 8.1 °F -5.3 °F 1.9 °F 76% 30.08 in - NE 9.2 mph - N/A   Unknown
5:56 AM 7.0 °F -3.3 °F 3.0 °F 84% 30.13 in - NNE 5.8 mph - N/A   Unknown
6:56 AM 8.1 °F -8.4 °F 3.0 °F 80% 30.10 in - East 13.8 mph - N/A   Unknown
7:56 AM 8.1 °F -4.3 °F 3.0 °F 80% 30.13 in - East 8.1 mph - N/A   Unknown
8:56 AM 9.0 °F -4.2 °F 3.9 °F 80% 30.13 in - East 9.2 mph - N/A   Unknown
9:56 AM 10.0 °F 0.4 °F 3.9 °F 76% 30.15 in - SE 5.8 mph - N/A   Unknown
10:56 AM 10.9 °F 2.9 °F 3.9 °F 73% 30.16 in - ESE 4.6 mph - N/A   Unknown
11:56 AM 12.0 °F 5.9 °F 5.0 °F 73% 30.16 in - East 3.5 mph - N/A   Unknown
12:56 PM 12.0 °F 4.1 °F 6.1 °F 77% 30.15 in - East 4.6 mph - N/A   Unknown
1:56 PM 14.0 °F 6.5 °F 6.1 °F 71% 30.15 in - NE 4.6 mph - N/A   Unknown
2:56 PM 12.0 °F - 8.1 °F 84% 30.16 in - Calm Calm - 0.03 in   Unknown
3:56 PM 12.9 °F 2.6 °F 8.1 °F 81% 30.17 in - NE 6.9 mph - 0.02 in   Unknown
4:56 PM 12.9 °F 0.7 °F 7.0 °F 77% 30.18 in - ENE 9.2 mph - N/A   Unknown
5:56 PM 12.0 °F 0.5 °F 8.1 °F 84% 30.21 in - East 8.1 mph - N/A   Unknown
6:56 PM 12.0 °F 1.5 °F 7.0 °F 80% 30.26 in - SE 6.9 mph - N/A   Unknown
7:56 PM 12.0 °F 2.7 °F 8.1 °F 84% 30.26 in - SE 5.8 mph - N/A   Unknown
8:56 PM 12.0 °F 4.1 °F 7.0 °F 80% 30.28 in - ESE 4.6 mph - N/A   Unknown
9:56 PM 12.0 °F 2.7 °F 8.1 °F 84% 30.28 in - SSE 5.8 mph - N/A   Unknown
10:56 PM 12.0 °F 0.5 °F 8.1 °F 84% 30.27 in - SSE 8.1 mph - N/A   Unknown
11:56 PM 10.9 °F -2.6 °F 7.0 °F 84% 30.27 in - SSE 10.4 mph - N/A   Unknown